GLOBAL-3 (44367 NORAD) Tracking and Keplerian Element Data

This shows tracking and keplerian element data for the satellite.

Feedback or suggestion? Click here.




ElementValue
Catalog44367
NameGLOBAL-3
Epoch Orbit453
Epoch Day209.6433497
Epoch Year2019
RAAN126.062
Inclination45.0103
Eccentricity0.0008594
Argument of Perigee82.4451
Mean Anonmoly277.7404
Mean Motion15.37563109
Decay Rate-3.37E-06
L11 44367U 19037C 19209.64334970 -.00000337 00000-0 00000-0 0 9995
L22 44367 45.0103 126.0620 0008594 82.4451 277.7404 15.37563109 4539

Live tracking and technical data element details for GLOBAL-3 (NORAD 44367). GLOBAL-3 can be tracked NOW for your location showing map with azimuth and elevation plus other details from your city location.

Track the satellite on the map from your city or location and see movement details for azimuth, elevation, latitude, longitude, range, height, and movement on the map or in text.







IsCatalogInMostPopularTable: catalog: 44367, numindb: 18
Update: records affected: 1



GetName: 44367 GLOBAL-3

Hit Count: updated at: Wed, 23 Oct 2019 00:25:57 GMT